KF5JED-13 Weather Reports


time (UTC)temp
F
wind
direction
speed
knots
gust
knots
rain 1hr
in
rain 24hr
in
rain mn
in
humidity
%
barometer
mb
20260508173457 78 217 3.5 5.2 0.00 0.00 0.00 29 1011.6
20260508172953 77 333 7.8 11.3 0.00 0.00 0.00 29 1011.9
20260508172450 77 273 1.7 7.0 0.00 0.00 0.00 29 1011.9
20260508171946 78 268 5.2 6.1 0.00 0.00 0.00 31 1012.1
20260508171443 77 302 5.2 5.2 0.00 0.00 0.00 30 1011.9
20260508170939 76 337 2.6 4.3 0.00 0.00 0.00 32 1012.1
20260508170437 76 254 4.3 7.8 0.00 0.00 0.00 33 1012.2
20260508165934 75 264 1.7 7.8 0.00 0.00 0.00 34 1012.3
20260508165432 74 226 8.7 8.7 0.00 0.00 0.00 34 1012.3
20260508164927 75 302 2.6 5.2 0.00 0.00 0.00 34 1012.3
20260508164425 74 222 7.8 10.4 0.00 0.00 0.00 34 1012.1
20260508163922 74 240 3.5 8.7 0.00 0.00 0.00 36 1012.3
20260508163420 73 305 5.2 7.8 0.00 0.00 0.00 37 1012.2
20260508162915 73 230 3.5 9.6 0.00 0.00 0.00 36 1012.6
20260508162413 73 238 3.5 7.0 0.00 0.00 0.00 36 1012.6
20260508161909 73 227 9.6 11.3 0.00 0.00 0.00 37 1012.5
20260508161407 72 274 3.5 9.6 0.00 0.00 0.00 39 1012.7
20260508160904 72 273 2.6 8.7 0.00 0.00 0.00 39 1012.5
20260508160403 72 254 4.3 12.2 0.00 0.00 0.00 39 1012.8
20260508155858 72 319 5.2 9.6 0.00 0.00 0.00 40 1012.7
20260508155356 71 251 5.2 9.6 0.00 0.00 0.00 40 1012.8
20260508154852 71 289 7.0 11.3 0.00 0.00 0.00 42 1012.7
20260508154350 71 217 5.2 10.4 0.00 0.00 0.00 42 1012.8
20260508153846 71 233 8.7 11.3 0.00 0.00 0.00 43 1012.8
20260508153344 70 281 7.8 11.3 0.00 0.00 0.00 43 1012.9
20260508152839 70 228 7.8 12.2 0.00 0.00 0.00 46 1013.0
20260508152336 69 222 7.0 12.2 0.00 0.00 0.00 48 1012.8
20260508151833 70 251 5.2 9.6 0.00 0.00 0.00 47 1012.9
20260508151330 69 226 7.0 10.4 0.00 0.00 0.00 48 1012.9
20260508150826 68 232 4.3 11.3 0.00 0.00 0.00 51 1012.8
20260508150323 67 228 5.2 12.2 0.00 0.00 0.00 53 1012.9
20260508145819 66 226 9.6 13.9 0.00 0.00 0.00 54 1012.9
20260508145315 67 221 8.7 14.8 0.00 0.00 0.00 54 1012.8
20260508144812 66 204 7.8 10.4 0.00 0.00 0.00 55 1013.1
20260508144310 65 229 7.8 12.2 0.00 0.00 0.00 57 1012.8
20260508143807 64 208 9.6 14.8 0.00 0.00 0.00 58 1012.7
20260508143304 64 214 7.8 17.4 0.00 0.00 0.00 58 1013.1
20260508142801 64 211 14.8 15.6 0.00 0.00 0.00 58 1012.8
20260508142258 65 215 12.2 14.8 0.00 0.00 0.00 57 1013.0
20260508141754 64 199 9.6 13.0 0.00 0.00 0.00 58 1013.1
20260508141251 63 218 3.5 11.3 0.00 0.00 0.00 61 1013.3
20260508140749 63 229 3.5 5.2 0.00 0.00 0.00 61 1013.5
20260508140246 62 234 2.6 4.3 0.00 0.00 0.00 62 1013.2
20260508135741 61 219 3.5 3.5 0.00 0.00 0.00 63 1013.3
20260508135238 60 296 1.7 3.5 0.00 0.00 0.00 64 1013.8
20260508134733 60 282 2.6 5.2 0.00 0.00 0.00 64 1013.7
20260508134232 59 0 0.9 4.3 0.00 0.00 0.00 65 1013.3
20260508133727 59 210 3.5 3.5 0.00 0.00 0.00 65 1013.1
20260508133225 58 292 3.5 3.5 0.00 0.00 0.00 66 1013.3
20260508132722 57 142 0.9 5.2 0.00 0.00 0.00 68 1012.9
20260508132220 57 208 1.7 3.5 0.00 0.00 0.00 69 1012.9
20260508131715 56 207 1.7 2.6 0.00 0.00 0.00 70 1012.7
20260508131212 55 215 0.0 2.6 0.00 0.00 0.00 71 1013.0
20260508130708 54 201 2.6 3.5 0.00 0.00 0.00 72 1013.0
20260508130205 54 188 3.5 3.5 0.00 0.00 0.00 73 1012.9
20260508125655 53 277 0.9 5.2 0.00 0.00 0.00 74 1013.1
20260508125152 53 199 1.7 5.2 0.00 0.00 0.00 75 1012.9
20260508124650 52 190 5.2 7.8 0.00 0.00 0.00 76 1012.5
20260508124147 52 181 5.2 7.0 0.00 0.00 0.00 77 1012.5
20260508123646 51 200 5.2 5.2 0.00 0.00 0.00 78 1012.7
20260508123143 51 202 2.6 4.3 0.00 0.00 0.00 78 1012.7
20260508122639 50 211 1.7 3.5 0.00 0.00 0.00 79 1012.6
20260508122136 50 209 4.3 5.2 0.00 0.00 0.00 80 1012.6
20260508121634 49 180 4.3 7.0 0.00 0.00 0.00 80 1012.6
20260508121132 49 201 6.1 7.8 0.00 0.00 0.00 80 1012.5
20260508120629 49 193 3.5 7.8 0.00 0.00 0.00 81 1012.5
20260508120127 48 199 5.2 5.2 0.00 0.00 0.00 82 1012.3
20260508115625 47 179 3.5 4.3 0.00 0.00 0.00 80 1012.3
20260508115121 49 194 2.6 4.3 0.00 0.00 0.00 80 1012.3
20260508114618 50 207 5.2 6.1 0.00 0.00 0.00 79 1012.3
20260508114114 50 202 4.3 7.0 0.00 0.00 0.00 78 1012.6
20260508113612 51 208 4.3 9.6 0.00 0.00 0.00 77 1012.2
20260508113110 51 202 7.0 12.2 0.00 0.00 0.00 77 1012.1
20260508112605 51 199 5.2 9.6 0.00 0.00 0.00 76 1012.2
20260508112103 52 202 8.7 9.6 0.00 0.00 0.00 76 1012.3
20260508111600 52 210 7.8 11.3 0.00 0.00 0.00 75 1012.5
20260508111057 53 195 7.8 10.4 0.00 0.00 0.00 74 1012.5
20260508110555 54 198 6.1 11.3 0.00 0.00 0.00 73 1012.6
20260508110050 54 205 7.8 10.4 0.00 0.00 0.00 73 1012.3
20260508105545 54 210 5.2 11.3 0.00 0.00 0.00 72 1012.3
20260508105043 54 217 7.8 11.3 0.00 0.00 0.00 72 1012.6
20260508104541 54 229 7.8 10.4 0.00 0.00 0.00 72 1012.5
20260508104037 54 227 8.7 10.4 0.00 0.00 0.00 72 1012.7
20260508103534 54 226 7.0 11.3 0.00 0.00 0.00 72 1012.5
20260508103031 54 223 7.0 9.6 0.00 0.00 0.00 71 1012.6
20260508102529 54 208 6.1 9.6 0.00 0.00 0.00 71 1012.6
20260508102027 54 207 6.1 9.6 0.00 0.00 0.00 71 1012.6
20260508101524 54 210 7.0 11.3 0.00 0.00 0.00 70 1012.7
20260508101021 54 207 5.2 8.7 0.00 0.00 0.00 70 1012.7
20260508100519 55 217 7.0 11.3 0.00 0.00 0.00 69 1012.6
20260508100016 55 202 10.4 11.3 0.00 0.00 0.00 69 1013.1
20260508095513 55 207 7.0 12.2 0.00 0.00 0.00 69 1012.7
20260508095009 55 206 7.0 8.7 0.00 0.00 0.00 68 1012.8
20260508094507 55 217 6.1 8.7 0.00 0.00 0.00 68 1013.2
20260508094003 55 215 9.6 10.4 0.00 0.00 0.00 68 1013.0
20260508093500 55 207 8.7 9.6 0.00 0.00 0.00 67 1013.0
20260508092958 55 210 8.7 10.4 0.00 0.00 0.00 68 1013.0
20260508092455 55 215 7.8 12.2 0.00 0.00 0.00 67 1013.1
20260508091954 55 205 7.8 11.3 0.00 0.00 0.00 66 1013.1
20260508091450 56 210 10.4 14.8 0.00 0.00 0.00 65 1013.2
20260508090948 56 207 11.3 16.5 0.00 0.00 0.00 65 1013.0
20260508090446 55 213 12.2 16.5 0.00 0.00 0.00 65 1013.1
20260508085941 55 213 12.2 15.6 0.00 0.00 0.00 65 1013.0
20260508085438 55 206 9.6 13.9 0.00 0.00 0.00 65 1012.8
20260508084935 55 198 8.7 13.9 0.00 0.00 0.00 64 1013.0
20260508084432 55 197 10.4 14.8 0.00 0.00 0.00 64 1013.1
20260508083930 55 209 12.2 14.8 0.00 0.00 0.00 63 1013.1
20260508083426 55 209 12.2 18.2 0.00 0.00 0.00 63 1013.1
20260508082921 56 212 13.0 17.4 0.00 0.00 0.00 62 1012.9
20260508082418 55 216 14.8 17.4 0.00 0.00 0.00 63 1013.1
20260508081916 54 208 10.4 12.2 0.00 0.00 0.00 64 1012.8
20260508081413 53 198 8.7 9.6 0.00 0.00 0.00 64 1012.9
20260508080909 53 193 8.7 9.6 0.00 0.00 0.00 63 1013.1
20260508080408 53 196 7.8 8.7 0.00 0.00 0.00 62 1013.2
20260508075903 54 180 6.1 9.6 0.00 0.00 0.00 61 1013.2
20260508075401 54 206 6.1 10.4 0.00 0.00 0.00 60 1013.3
20260508074859 54 193 6.1 10.4 0.00 0.00 0.00 59 1013.3
20260508074355 54 199 7.8 9.6 0.00 0.00 0.00 58 1013.3
20260508073852 54 201 6.1 9.6 0.00 0.00 0.00 57 1013.2
20260508073350 55 191 7.8 11.3 0.00 0.00 0.00 56 1013.1
20260508072846 55 212 6.1 11.3 0.00 0.00 0.00 56 1013.3
20260508072343 55 205 7.0 12.2 0.00 0.00 0.00 55 1013.2
20260508071840 55 208 8.7 9.6 0.00 0.00 0.00 54 1013.3
20260508071339 56 205 8.7 13.0 0.00 0.00 0.00 53 1013.0
20260508070837 56 203 8.7 13.0 0.00 0.00 0.00 52 1013.1
20260508070334 56 198 5.2 13.9 0.00 0.00 0.00 52 1013.2
20260508065831 55 195 9.6 11.3 0.00 0.00 0.00 53 1013.5
20260508065329 55 204 8.7 11.3 0.00 0.00 0.00 52 1013.3
20260508064827 55 196 6.1 9.6 0.00 0.00 0.00 52 1013.6
20260508064324 55 193 7.8 10.4 0.00 0.00 0.00 52 1013.5
20260508063822 55 201 5.2 9.6 0.00 0.00 0.00 52 1013.7
20260508063320 55 192 5.2 10.4 0.00 0.00 0.00 53 1013.6
20260508062817 55 188 7.8 7.8 0.00 0.00 0.00 53 1013.6
20260508062314 54 168 6.1 7.8 0.00 0.00 0.00 54 1013.6
20260508061811 54 180 4.3 5.2 0.00 0.00 0.00 54 1013.5
20260508061309 54 170 4.3 7.0 0.00 0.00 0.00 53 1013.7
20260508060804 54 164 7.0 7.8 0.00 0.00 0.00 54 1013.9
20260508060303 54 169 4.3 6.1 0.00 0.00 0.00 53 1013.8
20260508055757 55 165 3.5 6.1 0.00 0.00 0.00 52 1013.8
20260508055255 55 161 5.2 5.2 0.00 0.00 0.00 52 1013.8
20260508054751 55 166 4.3 7.0 0.00 0.00 0.00 51 1013.9
20260508054249 55 167 5.2 6.1 0.00 0.00 0.00 50 1013.9
20260508053746 56 178 5.2 7.0 0.00 0.00 0.00 49 1014.0
20260508053243 57 170 7.8 8.7 0.00 0.00 0.00 48 1014.1
20260508052740 57 188 7.0 9.6 0.00 0.00 0.00 47 1013.8
20260508052238 58 178 7.0 9.6 0.00 0.00 0.00 47 1013.9
20260508051733 58 189 5.2 7.8 0.00 0.00 0.00 46 1014.1
20260508051229 59 173 7.0 9.6 0.00 0.00 0.00 45 1014.1
20260508050726 59 172 5.2 9.6 0.00 0.00 0.00 45 1014.3
20260508050223 60 183 7.0 9.6 0.00 0.00 0.00 44 1014.2
20260508045718 60 176 7.0 9.6 0.00 0.00 0.00 44 1014.0
20260508045217 60 179 7.8 9.6 0.00 0.00 0.00 43 1014.1
20260508044714 60 171 7.8 8.7 0.00 0.00 0.00 43 1014.2
20260508044210 60 168 7.8 11.3 0.00 0.00 0.00 43 1014.2
20260508043706 60 165 7.8 7.8 0.00 0.00 0.00 43 1014.2
20260508043204 60 171 7.0 9.6 0.00 0.00 0.00 42 1014.5
20260508042700 60 155 6.1 7.8 0.00 0.00 0.00 42 1014.2
20260508042158 60 166 5.2 7.8 0.00 0.00 0.00 42 1014.2
20260508041654 60 161 6.1 8.7 0.00 0.00 0.00 41 1014.3
20260508041151 61 153 7.0 8.7 0.00 0.00 0.00 41 1014.2
20260508040647 61 160 7.8 7.8 0.00 0.00 0.00 40 1014.1
20260508040145 61 167 7.0 8.7 0.00 0.00 0.00 40 1014.2
20260508035642 61 166 6.1 8.7 0.00 0.00 0.00 40 1014.2
20260508035140 61 162 6.1 7.8 0.00 0.00 0.00 40 1014.2
20260508034636 61 173 5.2 7.8 0.00 0.00 0.00 40 1014.2
20260508034133 62 159 6.1 10.4 0.00 0.00 0.00 38 1014.0
20260508033630 63 155 9.6 11.3 0.00 0.00 0.00 38 1014.0
20260508033129 63 152 6.1 9.6 0.00 0.00 0.00 38 1014.2
20260508032625 63 154 7.8 9.6 0.00 0.00 0.00 38 1014.1
20260508032122 63 155 7.0 9.6 0.00 0.00 0.00 38 1014.1
20260508031619 63 162 7.0 8.7 0.00 0.00 0.00 37 1014.1
20260508031116 63 160 6.1 9.6 0.00 0.00 0.00 36 1013.8
20260508030612 63 150 6.1 9.6 0.00 0.00 0.00 36 1013.9
20260508030110 63 154 7.0 9.6 0.00 0.00 0.00 36 1013.9
20260508025606 62 156 5.2 7.0 0.00 0.00 0.00 37 1013.8
20260508025103 62 159 5.2 7.8 0.00 0.00 0.00 36 1013.9
20260508024559 62 153 7.0 7.8 0.00 0.00 0.00 35 1013.9
20260508024056 63 167 5.2 7.8 0.00 0.00 0.00 34 1013.6
20260508023552 64 164 5.2 9.6 0.00 0.00 0.00 33 1013.8
20260508023050 61 154 5.2 5.2 0.00 0.00 0.00 35 1013.6
20260508022546 63 151 5.2 6.1 0.00 0.00 0.00 33 1013.5
20260508022043 63 148 5.2 6.1 0.00 0.00 0.00 33 1013.7
20260508021539 61 154 4.3 5.2 0.00 0.00 0.00 34 1013.6
20260508021034 62 153 3.5 4.3 0.00 0.00 0.00 32 1013.5
20260508020532 64 156 1.7 3.5 0.00 0.00 0.00 31 1013.3
20260508020030 64 150 2.6 3.5 0.00 0.00 0.00 31 1013.6
20260508015527 63 156 2.6 3.5 0.00 0.00 0.00 31 1013.5
20260508015024 65 158 3.5 3.5 0.00 0.00 0.00 30 1013.5
20260508014521 67 148 3.5 5.2 0.00 0.00 0.00 28 1013.5
20260508014017 66 139 3.5 3.5 0.00 0.00 0.00 29 1013.2
20260508013513 68 178 2.6 3.5 0.00 0.00 0.00 29 1013.1
20260508013010 70 193 3.5 5.2 0.00 0.00 0.00 27 1013.2
20260508012507 71 200 3.5 7.8 0.00 0.00 0.00 27 1013.2
20260508012004 71 212 4.3 7.8 0.00 0.00 0.00 26 1013.1
20260508011503 72 209 6.1 7.8 0.00 0.00 0.00 26 1013.0
20260508010959 73 211 7.0 9.6 0.00 0.00 0.00 26 1013.3
20260508010451 73 211 8.7 14.8 0.00 0.00 0.00 25 1013.1
20260508005948 73 194 12.2 13.0 0.00 0.00 0.00 25 1013.2
20260508005445 74 206 10.4 13.9 0.00 0.00 0.00 25 1013.1
20260508004941 74 218 6.1 9.6 0.00 0.00 0.00 25 1013.1
20260508004437 74 229 6.1 9.6 0.00 0.00 0.00 25 1013.1
20260508003934 74 219 7.0 12.2 0.00 0.00 0.00 25 1013.1
20260508003431 75 199 12.2 15.6 0.00 0.00 0.00 24 1013.1
20260508002928 75 207 9.6 11.3 0.00 0.00 0.00 24 1013.1
20260508002425 75 223 5.2 13.0 0.00 0.00 0.00 25 1013.1
20260508001921 75 197 7.0 16.5 0.00 0.00 0.00 25 1013.1
20260508001417 75 213 7.8 13.0 0.00 0.00 0.00 25 1013.0
20260508000914 75 274 2.6 12.2 0.00 0.00 0.00 25 1013.0
20260508000412 76 212 5.2 7.8 0.00 0.00 0.00 24 1013.1
20260507235907 76 225 9.6 13.9 0.00 0.00 0.00 23 1013.1
20260507235404 75 199 5.2 14.8 0.00 0.00 0.00 24 1013.3
20260507234901 76 214 6.1 10.4 0.00 0.00 0.00 24 1013.0
20260507234359 76 235 3.5 9.6 0.00 0.00 0.00 24 1013.0
20260507233854 76 212 7.8 9.6 0.00 0.00 0.00 23 1012.9
20260507233351 76 218 11.3 17.4 0.00 0.00 0.00 23 1013.0
20260507232849 76 205 11.3 13.0 0.00 0.00 0.00 23 1012.9
20260507232345 76 213 13.0 14.8 0.00 0.00 0.00 23 1013.1
20260507231843 76 205 9.6 12.2 0.00 0.00 0.00 23 1013.2
20260507231340 77 287 1.7 5.2 0.00 0.00 0.00 24 1013.2
20260507230836 77 210 7.0 7.0 0.00 0.00 0.00 23 1013.2
20260507230333 76 235 9.6 12.2 0.00 0.00 0.00 23 1013.3
20260507225833 75 223 8.7 18.2 0.00 0.00 0.00 24 1013.3
20260507225329 76 223 7.8 7.8 0.00 0.00 0.00 24 1013.5
20260507224826 76 277 3.5 9.6 0.00 0.00 0.00 25 1013.5
20260507224323 76 275 3.5 7.8 0.00 0.00 0.00 23 1013.5
20260507223819 76 314 1.7 10.4 0.00 0.00 0.00 24 1013.5
20260507223315 76 255 6.1 9.6 0.00 0.00 0.00 24 1013.7
20260507222812 76 284 1.7 10.4 0.00 0.00 0.00 24 1013.6
20260507222308 76 241 2.6 7.8 0.00 0.00 0.00 24 1013.7
20260507221806 76 240 6.1 12.2 0.00 0.00 0.00 24 1013.7
20260507221302 75 315 2.6 6.1 0.00 0.00 0.00 24 1013.8
20260507220758 75 231 11.3 13.9 0.00 0.00 0.00 25 1013.8
20260507220257 75 212 9.6 13.0 0.00 0.00 0.00 25 1013.7
20260507215752 75 225 1.7 6.1 0.00 0.00 0.00 25 1013.8
20260507215250 75 221 7.8 12.2 0.00 0.00 0.00 25 1014.1
20260507214747 74 207 12.2 18.2 0.00 0.00 0.00 25 1014.2
20260507214244 74 253 3.5 7.0 0.00 0.00 0.00 26 1014.3
20260507213739 74 195 3.5 16.5 0.00 0.00 0.00 26 1014.5
20260507213237 73 223 10.4 16.5 0.00 0.00 0.00 26 1014.3
20260507212733 74 227 9.6 15.6 0.00 0.00 0.00 25 1014.7
20260507212230 73 221 12.2 16.5 0.00 0.00 0.00 24 1014.6
20260507211726 74 294 2.6 7.0 0.00 0.00 0.00 25 1014.7
20260507211222 73 232 4.3 10.4 0.00 0.00 0.00 26 1014.8
20260507210720 73 208 7.8 13.0 0.00 0.00 0.00 24 1015.0
20260507210216 73 286 5.2 14.8 0.00 0.00 0.00 26 1014.7
20260507205713 72 259 7.0 10.4 0.00 0.00 0.00 27 1015.0
20260507205209 72 216 5.2 13.0 0.00 0.00 0.00 27 1015.0
20260507204706 73 212 9.6 13.0 0.00 0.00 0.00 26 1015.1
20260507204204 72 231 4.3 6.1 0.00 0.00 0.00 28 1015.2
20260507203702 72 228 7.8 13.0 0.00 0.00 0.00 27 1015.7
20260507203159 72 190 8.7 10.4 0.00 0.00 0.00 29 1015.5
20260507202654 72 293 4.3 14.8 0.00 0.00 0.00 31 1015.7
20260507202150 71 321 3.5 13.0 0.00 0.00 0.00 29 1015.9
20260507201645 72 243 8.7 13.0 0.00 0.00 0.00 29 1015.8
20260507201143 71 175 5.2 11.3 0.00 0.00 0.00 32 1015.9
20260507200639 72 208 13.0 13.0 0.00 0.00 0.00 30 1016.0
20260507200135 71 170 5.2 13.0 0.00 0.00 0.00 31 1016.2
20260507195632 69 257 5.2 13.0 0.00 0.00 0.00 33 1016.3
20260507195129 70 217 4.3 5.2 0.00 0.00 0.00 32 1016.2
20260507194626 71 221 7.8 13.0 0.00 0.00 0.00 32 1016.7
20260507194121 69 192 3.5 12.2 0.00 0.00 0.00 33 1016.7
20260507193618 70 219 12.2 15.6 0.00 0.00 0.00 32 1016.9
20260507193115 69 232 1.7 7.8 0.00 0.00 0.00 35 1016.7
20260507192612 69 203 10.4 13.0 0.00 0.00 0.00 34 1017.0
20260507192109 69 233 8.7 10.4 0.00 0.00 0.00 35 1016.9
20260507191604 68 239 7.0 18.2 0.00 0.00 0.00 38 1017.0
20260507191101 68 297 4.3 7.0 0.00 0.00 0.00 37 1017.2
20260507190558 68 223 9.6 13.0 0.00 0.00 0.00 37 1017.2
20260507190057 68 215 4.3 12.2 0.00 0.00 0.00 39 1017.3
20260507185555 67 305 2.6 9.6 0.00 0.00 0.00 40 1017.2
20260507185051 66 287 6.1 9.6 0.00 0.00 0.00 42 1017.6
20260507184550 68 249 4.3 8.7 0.00 0.00 0.00 41 1017.6
20260507184047 67 298 4.3 16.5 0.00 0.00 0.00 40 1017.7
20260507183543 67 207 10.4 15.6 0.00 0.00 0.00 40 1017.8
20260507183040 66 241 3.5 9.6 0.00 0.00 0.00 42 1018.1
20260507182536 64 227 7.0 20.0 0.00 0.00 0.00 45 1018.1
20260507182032 65 237 4.3 12.2 0.00 0.00 0.00 44 1018.2
20260507181530 65 208 12.2 17.4 0.00 0.00 0.00 43 1018.4
20260507181026 64 228 3.5 14.8 0.00 0.00 0.00 45 1018.5
20260507180522 65 226 13.0 15.6 0.00 0.00 0.00 45 1018.6
20260507180019 64 319 3.5 8.7 0.00 0.00 0.00 46 1018.7
20260507175515 64 217 6.1 13.9 0.00 0.00 0.00 45 1018.7
20260507175013 64 227 10.4 13.0 0.00 0.00 0.00 46 1018.9
20260507174510 63 233 7.8 17.4 0.00 0.00 0.00 47 1018.8
20260507174008 62 233 11.3 14.8 0.00 0.00 0.00 48 1019.1